FW4751 Weather Reports


time (UTC)temp
C
wind
direction
speed
KPH
gust
KPH
rain 1hr
cm
rain 24hr
cm
rain mn
cm
humidity
%
barometer
mb
20260508102503 12 338 1.6 4.8 0.00 0.00 0.00 83 1019.1
20260508102003 12 315 1.6 4.8 0.00 0.00 0.00 83 1019.0
20260508101503 12 315 1.6 3.2 0.00 0.00 0.00 83 1019.0
20260508101003 12 45 1.6 3.2 0.00 0.00 0.00 83 1019.0
20260508100503 12 45 1.6 4.8 0.00 0.00 0.00 83 1018.9
20260508100004 12 45 1.6 4.8 0.00 0.00 0.00 83 1018.8
20260508095503 12 338 1.6 4.8 0.00 0.00 0.00 83 1018.8
20260508095003 12 338 1.6 6.4 0.00 0.00 0.00 83 1018.9
20260508094523 12 45 3.2 6.4 0.00 0.00 0.00 83 1018.9
20260508094003 12 338 3.2 6.4 0.00 0.00 0.00 83 1018.8
20260508093523 12 45 3.2 6.4 0.00 0.00 0.00 83 1018.8
20260508093003 12 338 1.6 4.8 0.00 0.00 0.00 83 1018.9
20260508092503 12 338 1.6 6.4 0.00 0.00 0.00 83 1018.9
20260508092003 12 45 1.6 4.8 0.00 0.00 0.00 83 1018.9
20260508091523 12 45 1.6 6.4 0.00 0.00 0.00 83 1018.9
20260508091003 12 338 1.6 6.4 0.00 0.00 0.00 83 1018.9
20260508090523 12 23 3.2 6.4 0.00 0.00 0.00 84 1018.9
20260508090003 12 315 1.6 6.4 0.00 0.00 0.00 84 1018.8
20260508085504 12 338 1.6 3.2 0.00 0.00 0.00 84 1018.9
20260508085003 12 338 1.6 4.8 0.00 0.00 0.00 84 1019.0
20260508084504 12 338 1.6 4.8 0.00 0.00 0.00 84 1019.0
20260508084003 12 45 1.6 4.8 0.00 0.00 0.00 84 1018.9
20260508083523 12 45 1.6 4.8 0.00 0.00 0.00 84 1019.0
20260508083003 12 315 1.6 3.2 0.00 0.00 0.00 85 1019.0
20260508082523 12 315 1.6 4.8 0.00 0.00 0.00 85 1019.1
20260508082003 12 338 1.6 4.8 0.00 0.00 0.00 85 1019.0
20260508081503 12 45 1.6 6.4 0.00 0.00 0.00 85 1019.1
20260508081003 12 338 3.2 6.4 0.00 0.00 0.00 85 1019.1
20260508080523 12 338 3.2 8.0 0.00 0.00 0.00 86 1019.2
20260508080003 12 45 1.6 6.4 0.00 0.00 0.00 86 1019.1
20260508075503 12 315 3.2 8.0 0.00 0.00 0.00 87 1019.1
20260508075003 12 338 1.6 8.0 0.00 0.00 0.00 87 1019.1
20260508074503 12 315 1.6 6.4 0.00 0.00 0.00 88 1019.1
20260508074003 12 315 1.6 4.8 0.00 0.00 0.00 88 1019.0
20260508073523 12 315 1.6 4.8 0.00 0.00 0.00 89 1019.0
20260508073003 12 315 1.6 6.4 0.00 0.00 0.00 89 1019.0
20260508072503 12 338 1.6 4.8 0.00 0.00 0.00 89 1018.9
20260508072003 11 338 1.6 4.8 0.00 0.00 0.00 89 1019.0
20260508071523 11 315 1.6 4.8 0.00 0.00 0.00 89 1018.9
20260508071003 11 315 1.6 4.8 0.00 0.00 0.00 89 1019.0
20260508070503 11 315 1.6 3.2 0.00 0.00 0.00 89 1019.0
20260508070025 11 338 1.6 3.2 0.00 0.00 0.00 88 1019.0
20260508065503 11 315 1.6 1.6 0.00 0.00 0.00 88 1019.0
20260508065003 11 0.0 1.6 0.00 0.00 0.00 88 1019.0
20260508064503 11 0.0 1.6 0.00 0.00 0.00 88 1019.0
20260508064003 11 0.0 3.2 0.00 0.00 0.00 87 1019.0
20260508063503 11 0.0 1.6 0.00 0.00 0.00 87 1019.0
20260508063003 11 0.0 3.2 0.00 0.00 0.00 88 1019.1
20260508062503 11 293 1.6 3.2 0.00 0.00 0.00 87 1019.0
20260508062003 11 0.0 1.6 0.00 0.00 0.00 87 1019.0
20260508061523 11 0.0 3.2 0.00 0.00 0.00 87 1018.9
20260508061003 11 0.0 3.2 0.00 0.00 0.00 87 1018.8
20260508060503 11 0.0 1.6 0.00 0.00 0.00 87 1018.7
20260508060003 11 0.0 1.6 0.00 0.00 0.00 87 1018.7
20260508055503 12 0.0 1.6 0.00 0.00 0.00 86 1018.7
20260508055004 12 0.0 1.6 0.00 0.00 0.00 86 1018.7
20260508054505 12 0.0 1.6 0.00 0.00 0.00 86 1018.6
20260508054005 12 0.0 3.2 0.00 0.00 0.00 86 1018.6
20260508053505 12 0 1.6 3.2 0.00 0.00 0.00 86 1018.7
20260508053004 12 0.0 1.6 0.00 0.00 0.00 86 1018.6
20260508052504 12 45 1.6 3.2 0.00 0.00 0.00 86 1018.5
20260508052005 12 0.0 3.2 0.00 0.00 0.00 86 1018.6
20260508051504 12 0.0 3.2 0.00 0.00 0.00 86 1018.5
20260508051005 12 45 1.6 3.2 0.00 0.00 0.00 86 1018.6
20260508050504 12 45 1.6 3.2 0.00 0.00 0.00 85 1018.5
20260508050004 12 45 1.6 3.2 0.00 0.00 0.00 85 1018.4
20260508045505 12 0.0 3.2 0.00 0.00 0.00 85 1018.4
20260508045004 12 45 1.6 4.8 0.00 0.00 0.00 85 1018.4
20260508044505 12 45 3.2 4.8 0.00 0.00 0.00 85 1018.4
20260508044024 13 45 1.6 4.8 0.00 0.00 0.00 85 1018.4
20260508043525 13 45 1.6 4.8 0.00 0.00 0.00 85 1018.3
20260508043005 13 45 1.6 4.8 0.00 0.00 0.00 84 1018.3
20260508042525 13 45 1.6 4.8 0.00 0.00 0.00 84 1018.3
20260508042005 13 45 1.6 4.8 0.00 0.00 0.00 83 1018.2
20260508041505 13 45 1.6 6.4 0.00 0.00 0.00 83 1018.2
20260508041005 13 45 3.2 9.7 0.00 0.00 0.00 83 1018.2
20260508040504 13 45 4.8 9.7 0.00 0.00 0.00 82 1018.0
20260508040005 13 45 3.2 9.7 0.00 0.00 0.00 82 1018.0
20260508035504 13 45 3.2 8.0 0.00 0.00 0.00 81 1017.9
20260508035004 14 45 1.6 4.8 0.00 0.00 0.00 82 1017.9
20260508034505 14 45 1.6 4.8 0.00 0.00 0.00 81 1017.8
20260508034004 14 45 3.2 6.4 0.00 0.00 0.00 81 1017.8
20260508033525 14 45 1.6 6.4 0.00 0.00 0.00 81 1017.7
20260508033004 15 45 1.6 3.2 0.00 0.00 0.00 81 1017.6
20260508032504 15 68 1.6 3.2 0.00 0.00 0.00 81 1017.6
20260508032005 15 68 1.6 3.2 0.00 0.00 0.00 81 1017.6
20260508031505 15 0.0 3.2 0.00 0.00 0.00 81 1017.5
20260508031004 15 68 1.6 4.8 0.00 0.00 0.00 81 1017.5
20260508030504 15 68 1.6 4.8 0.00 0.00 0.00 80 1017.4
20260508030005 15 45 1.6 4.8 0.00 0.00 0.00 80 1017.4
20260508025504 15 45 3.2 4.8 0.00 0.00 0.00 80 1017.3
20260508025004 15 45 1.6 9.7 0.00 0.00 0.00 80 1017.3
20260508024505 15 45 1.6 6.4 0.00 0.00 0.00 80 1017.3
20260508024005 16 45 3.2 8.0 0.00 0.00 0.00 79 1017.3
20260508023504 16 45 3.2 8.0 0.00 0.00 0.00 79 1017.2
20260508023005 16 45 3.2 6.4 0.00 0.00 0.00 78 1017.2
20260508022524 16 45 3.2 8.0 0.00 0.00 0.00 78 1017.1
20260508022004 16 45 3.2 8.0 0.00 0.00 0.00 78 1017.2
20260508021505 16 45 3.2 6.4 0.00 0.00 0.00 77 1017.2
20260508021004 16 45 3.2 8.0 0.00 0.00 0.00 77 1017.2
20260508020525 16 45 3.2 6.4 0.00 0.00 0.00 77 1017.2
20260508020004 16 45 3.2 8.0 0.00 0.00 0.00 77 1017.2
20260508015504 16 45 4.8 12.9 0.00 0.00 0.00 76 1017.2
20260508015005 16 45 3.2 11.3 0.00 0.00 0.00 76 1017.2
20260508014504 16 45 4.8 11.3 0.00 0.00 0.00 76 1017.1
20260508014004 16 45 6.4 14.5 0.00 0.00 0.00 75 1017.1
20260508013505 17 45 6.4 12.9 0.00 0.00 0.00 75 1017.3
20260508013004 17 45 4.8 12.9 0.00 0.00 0.00 75 1017.0
20260508012504 17 45 4.8 14.5 0.00 0.00 0.00 75 1017.0
20260508012004 17 45 6.4 16.1 0.00 0.00 0.00 75 1017.1
20260508011504 17 45 6.4 12.9 0.00 0.00 0.00 74 1017.2
20260508011004 17 45 4.8 11.3 0.00 0.00 0.00 74 1017.1
20260508010504 17 45 6.4 17.7 0.00 0.00 0.00 73 1017.0
20260508010004 17 45 6.4 14.5 0.00 0.00 0.00 72 1017.1
20260508005504 17 45 6.4 12.9 0.00 0.00 0.00 72 1017.2
20260508005004 17 45 4.8 16.1 0.00 0.00 0.00 71 1017.3
20260508004504 18 45 8.0 17.7 0.00 0.00 0.00 70 1017.4
20260508004004 18 23 6.4 12.9 0.00 0.00 0.00 69 1017.3
20260508003504 18 45 4.8 12.9 0.00 0.00 0.00 69 1017.3
20260508003006 18 338 4.8 16.1 0.00 0.00 0.00 69 1017.2
20260508002504 18 45 4.8 14.5 0.00 0.00 0.00 69 1017.2
20260508002004 18 45 6.4 16.1 0.00 0.00 0.00 68 1017.1
20260508001504 19 45 6.4 14.5 0.00 0.00 0.00 67 1017.1
20260508001004 19 45 4.8 12.9 0.00 0.00 0.00 67 1017.2
20260508000504 19 338 4.8 16.1 0.00 0.00 0.00 67 1017.2
20260508000004 19 45 4.8 12.9 0.00 0.00 0.00 66 1017.2
20260507235504 19 338 4.8 12.9 0.00 0.00 0.00 66 1017.2
20260507235024 19 45 6.4 14.5 0.00 0.00 0.00 65 1017.2
20260507234504 20 45 4.8 11.3 0.00 0.00 0.00 64 1017.2
20260507234005 20 338 4.8 12.9 0.00 0.00 0.00 66 1017.3
20260507233504 19 45 6.4 14.5 0.00 0.00 0.00 66 1017.2
20260507233004 19 338 3.2 11.3 0.00 0.00 0.00 67 1017.2
20260507232504 19 45 6.4 12.9 0.00 0.00 0.00 67 1017.3
20260507232024 20 45 4.8 11.3 0.00 0.00 0.00 67 1017.3
20260507231504 20 45 4.8 11.3 0.00 0.00 0.00 67 1017.4
20260507231004 20 45 4.8 8.0 0.00 0.00 0.00 68 1017.4
20260507230504 20 338 3.2 9.7 0.00 0.00 0.00 68 1017.4
20260507230024 19 45 4.8 11.3 0.00 0.00 0.00 68 1017.4
20260507225504 19 45 3.2 9.7 0.00 0.00 0.00 69 1017.4
20260507225004 19 45 4.8 11.3 0.00 0.00 0.00 69 1017.4
20260507224504 19 45 6.4 12.9 0.00 0.00 0.00 69 1017.5
20260507224004 20 45 6.4 14.5 0.00 0.00 0.00 68 1017.5
20260507223504 20 45 4.8 9.7 0.00 0.00 0.00 69 1017.4
20260507223004 19 45 4.8 11.3 0.00 0.00 0.00 69 1017.5
20260507222504 19 45 4.8 12.9 0.00 0.00 0.00 69 1017.6
20260507222004 19 45 4.8 12.9 0.00 0.00 0.00 68 1017.8
20260507221504 20 68 4.8 9.7 0.00 0.00 0.00 68 1017.8
20260507221024 20 338 4.8 11.3 0.00 0.00 0.00 69 1017.8
20260507220524 19 45 4.8 11.3 0.00 0.00 0.00 68 1017.9
20260507220044 19 315 3.2 8.0 0.00 0.00 0.00 70 1018.0
20260507215504 19 45 4.8 11.3 0.00 0.00 0.00 70 1018.0
20260507215024 19 338 4.8 9.7 0.00 0.00 0.00 70 1018.1
20260507214524 19 23 4.8 9.7 0.00 0.00 0.00 70 1018.2
20260507214004 18 45 6.4 14.5 0.00 0.00 0.00 71 1018.2
20260507213504 18 45 4.8 11.3 0.00 0.00 0.00 71 1018.2
20260507213004 18 45 6.4 12.9 0.00 0.00 0.00 70 1018.3
20260507212504 18 45 4.8 11.3 0.00 0.00 0.00 70 1018.4
20260507212004 18 45 4.8 14.5 0.00 0.00 0.00 70 1018.3
20260507211503 19 45 4.8 12.9 0.00 0.00 0.00 69 1018.4
20260507211024 19 45 4.8 11.3 0.00 0.00 0.00 70 1018.4
20260507210503 19 45 4.8 12.9 0.00 0.00 0.00 70 1018.6
20260507210003 18 45 4.8 14.5 0.00 0.00 0.00 70 1018.5
20260507205503 19 68 3.2 9.7 0.00 0.00 0.00 70 1018.6
20260507205024 18 45 4.8 11.3 0.00 0.00 0.00 70 1018.6
20260507204504 18 45 3.2 11.3 0.00 0.00 0.00 73 1018.7
20260507204004 18 68 4.8 11.3 0.00 0.00 0.00 72 1018.7
20260507203504 18 45 4.8 11.3 0.00 0.00 0.00 72 1018.7
20260507203003 18 45 3.2 8.0 0.00 0.00 0.00 71 1018.8
20260507202504 18 68 3.2 9.7 0.00 0.00 0.00 71 1018.9
20260507202004 18 45 3.2 9.7 0.00 0.00 0.00 72 1019.0
20260507201504 18 68 4.8 9.7 0.00 0.00 0.00 71 1019.1
20260507201003 18 68 3.2 8.0 0.00 0.00 0.00 71 1019.1
20260507200503 18 45 3.2 8.0 0.00 0.00 0.00 72 1019.1
20260507200004 18 45 3.2 11.3 0.00 0.00 0.00 72 1019.2
20260507195504 17 45 3.2 9.7 0.00 0.00 0.00 72 1019.3
20260507195004 18 45 3.2 6.4 0.00 0.00 0.00 72 1019.4
20260507194503 17 45 4.8 9.7 0.00 0.00 0.00 72 1019.3
20260507194003 18 45 3.2 12.9 0.00 0.00 0.00 71 1019.4
20260507193503 18 45 4.8 11.3 0.00 0.00 0.00 71 1019.4
20260507193003 18 45 3.2 8.0 0.00 0.00 0.00 71 1019.5
20260507192503 18 45 3.2 8.0 0.00 0.00 0.00 72 1019.5
20260507192004 17 45 3.2 8.0 0.00 0.00 0.00 73 1019.5
20260507191503 17 45 3.2 9.7 0.00 0.00 0.00 74 1019.6
20260507191004 17 45 3.2 8.0 0.00 0.00 0.00 74 1019.6
20260507190523 17 68 3.2 8.0 0.00 0.00 0.00 75 1019.8
20260507190004 17 113 1.6 6.4 0.00 0.00 0.00 77 1019.7
20260507185503 16 68 3.2 6.4 0.00 0.00 0.00 77 1019.8
20260507185003 16 45 3.2 4.8 0.00 0.00 0.00 78 1019.8
20260507184504 16 45 3.2 8.0 0.00 0.00 0.00 78 1019.8
20260507184003 16 45 3.2 9.7 0.00 0.00 0.00 78 1019.9
20260507183503 16 45 3.2 9.7 0.00 0.00 0.00 78 1019.9
20260507183003 16 68 3.2 6.4 0.00 0.00 0.00 78 1020.0
20260507182503 16 68 1.6 4.8 0.00 0.00 0.00 78 1020.0
20260507182023 16 45 3.2 6.4 0.00 0.00 0.00 78 1020.0
20260507181503 16 68 1.6 6.4 0.00 0.00 0.00 78 1019.9
20260507181003 16 45 1.6 4.8 0.00 0.00 0.00 78 1019.9
20260507180503 16 45 1.6 3.2 0.00 0.00 0.00 79 1019.9
20260507180003 16 45 1.6 4.8 0.00 0.00 0.00 79 1019.9
20260507175503 16 0.0 3.2 0.00 0.00 0.00 80 1019.9
20260507175003 16 45 1.6 4.8 0.00 0.00 0.00 80 1019.9
20260507174523 15 225 1.6 3.2 0.00 0.00 0.00 81 1019.8
20260507174003 15 293 1.6 3.2 0.00 0.00 0.00 81 1019.9
20260507173503 15 225 1.6 3.2 0.00 0.00 0.00 81 1020.0
20260507173004 15 293 1.6 3.2 0.00 0.00 0.00 82 1019.9
20260507172503 15 90 1.6 3.2 0.00 0.00 0.00 82 1019.9
20260507172023 15 315 1.6 3.2 0.00 0.00 0.00 83 1019.9
20260507171504 15 315 1.6 3.2 0.00 0.00 0.00 83 1019.8
20260507171003 15 315 1.6 3.2 0.00 0.00 0.00 84 1019.8
20260507170503 14 135 1.6 3.2 0.00 0.00 0.00 84 1019.8
20260507170003 14 135 1.6 3.2 0.00 0.00 0.00 84 1019.8
20260507165523 14 113 1.6 4.8 0.00 0.00 0.00 85 1019.9
20260507165023 14 113 1.6 4.8 0.00 0.00 0.00 85 1019.9
20260507164503 14 135 1.6 4.8 0.00 0.00 0.00 84 1019.7
20260507164008 14 135 1.6 3.2 0.00 0.00 0.00 85 1019.9
20260507163503 13 45 1.6 3.2 0.00 0.00 0.00 86 1019.8
20260507163003 13 45 1.6 3.2 0.00 0.00 0.00 86 1019.8
20260507162503 13 0 1.6 4.8 0.00 0.00 0.00 86 1019.9
20260507162003 13 45 1.6 4.8 0.00 0.00 0.00 86 1019.9
20260507161503 13 45 1.6 3.2 0.00 0.00 0.00 86 1019.8
20260507161003 13 45 1.6 3.2 0.00 0.00 0.00 86 1019.9
20260507160503 13 113 1.6 3.2 0.00 0.00 0.00 87 1019.9
20260507160003 13 0.0 3.2 0.00 0.00 0.00 87 1019.8
20260507155503 13 0 1.6 3.2 0.00 0.00 0.00 87 1019.8
20260507155003 13 270 1.6 3.2 0.00 0.00 0.00 87 1019.9
20260507154503 13 270 1.6 1.6 0.00 0.00 0.00 87 1019.9
20260507154003 13 45 1.6 3.2 0.00 0.00 0.00 87 1019.9
20260507153504 13 45 1.6 4.8 0.00 0.00 0.00 87 1019.8
20260507153002 13 0.0 1.6 0.00 0.00 0.00 87 1019.8
20260507152503 13 45 1.6 4.8 0.00 0.00 0.00 87 1019.7
20260507152005 13 0.0 3.2 0.00 0.00 0.00 87 1019.8
20260507151505 13 0.0 3.2 0.00 0.00 0.00 87 1019.8
20260507151005 13 0 1.6 3.2 0.00 0.00 0.00 87 1019.8
20260507150503 13 68 1.6 3.2 0.00 0.00 0.00 87 1019.7
20260507150006 13 0.0 3.2 0.00 0.00 0.00 87 1019.8
20260507145504 13 315 1.6 3.2 0.00 0.00 0.00 87 1019.7
20260507145025 13 0.0 1.6 0.00 0.00 0.00 87 1019.8
20260507144505 13 45 1.6 3.2 0.00 0.00 0.00 86 1019.8
20260507144005 13 338 1.6 4.8 0.00 0.00 0.00 86 1019.8
20260507143505 13 338 1.6 4.8 0.00 0.00 0.00 86 1019.8
20260507143005 13 45 1.6 3.2 0.00 0.00 0.00 86 1019.8
20260507142531 13 0 1.6 3.2 0.00 0.00 0.00 86 1019.7
20260507142025 13 45 1.6 3.2 0.00 0.00 0.00 86 1019.7
20260507141504 13 0 1.6 4.8 0.00 0.00 0.00 86 1019.6
20260507141004 13 45 1.6 4.8 0.00 0.00 0.00 86 1019.6
20260507140504 13 45 1.6 4.8 0.00 0.00 0.00 86 1019.6
20260507140006 13 0.0 3.2 0.00 0.00 0.00 86 1019.4
20260507135505 13 45 1.6 3.2 0.00 0.00 0.00 86 1019.5
20260507135005 13 45 1.6 4.8 0.00 0.00 0.00 86 1019.5
20260507134505 13 338 1.6 4.8 0.00 0.00 0.00 86 1019.5
20260507134005 13 45 1.6 6.4 0.00 0.00 0.00 86 1019.5
20260507133505 13 0 1.6 4.8 0.00 0.00 0.00 86 1019.5
20260507133004 13 45 1.6 4.8 0.00 0.00 0.00 86 1019.4
20260507132505 13 0 1.6 3.2 0.00 0.00 0.00 86 1019.3
20260507132025 13 45 1.6 3.2 0.00 0.00 0.00 86 1019.3
20260507131505 13 45 1.6 4.8 0.00 0.00 0.00 86 1019.2
20260507131005 13 45 3.2 6.4 0.00 0.00 0.00 86 1019.3
20260507130505 13 45 1.6 3.2 0.00 0.00 0.00 86 1019.3
20260507130005 13 45 1.6 6.4 0.00 0.00 0.00 86 1019.2
20260507125504 13 68 1.6 3.2 0.00 0.00 0.00 86 1019.3
20260507125004 13 0.0 3.2 0.00 0.00 0.00 86 1019.1
20260507124504 13 45 1.6 4.8 0.00 0.00 0.00 86 1019.2
20260507124004 13 45 1.6 4.8 0.00 0.00 0.00 86 1019.1
20260507123505 13 338 1.6 4.8 0.00 0.00 0.00 86 1019.1
20260507123005 13 45 1.6 4.8 0.00 0.00 0.00 86 1019.1
20260507122504 13 45 1.6 3.2 0.00 0.00 0.00 86 1019.2
20260507122005 13 338 1.6 4.8 0.00 0.00 0.00 87 1019.2
20260507121505 13 45 1.6 4.8 0.00 0.00 0.00 87 1019.1
20260507121004 13 45 1.6 3.2 0.00 0.00 0.00 87 1019.2
20260507120525 13 0 1.6 4.8 0.00 0.00 0.00 87 1019.2
20260507120005 13 0 1.6 3.2 0.00 0.00 0.00 87 1019.2
20260507115504 13 45 1.6 4.8 0.00 0.00 0.00 87 1019.3
20260507115025 13 0 1.6 4.8 0.00 0.00 0.00 87 1019.3
20260507114504 13 0.0 3.2 0.00 0.00 0.00 87 1019.4
20260507114004 13 45 1.6 4.8 0.00 0.00 0.00 87 1019.4
20260507113504 13 45 1.6 4.8 0.00 0.00 0.00 86 1019.4
20260507113005 13 0 1.6 4.8 0.00 0.00 0.00 87 1019.5
20260507112505 13 0 1.6 3.2 0.00 0.00 0.00 87 1019.4
20260507112026 13 0 1.6 4.8 0.00 0.00 0.00 87 1019.4
20260507111506 13 0 1.6 3.2 0.00 0.00 0.00 87 1019.4
20260507111004 13 0 1.6 4.8 0.00 0.00 0.00 86 1019.4
20260507110524 13 45 1.6 4.8 0.00 0.00 0.00 86 1019.4
20260507110005 13 45 1.6 3.2 0.00 0.00 0.00 86 1019.4
20260507105504 13 45 1.6 3.2 0.00 0.00 0.00 86 1019.4
20260507105005 13 0.0 1.6 0.00 0.00 0.00 86 1019.5
20260507104505 13 0.0 3.2 0.00 0.00 0.00 86 1019.5
20260507104004 13 0 1.6 3.2 0.00 0.00 0.00 86 1019.5
20260507103504 13 338 1.6 4.8 0.00 0.00 0.00 86 1019.5
20260507103004 13 0 1.6 4.8 0.00 0.00 0.00 86 1019.5